Showing default

KUIPER-00269, 68587

Orbit data source: Space-Track

KUIPER-00269, 68587 is a payload satellite owned by Kuiper Systems (US) in LEO that was launched on Sat, 04 Apr 2026 UTC via an ATLAS V 551 launch vehicle from the Air Force Eastern Test Range (AFETR). Payload-class satellites include a variety of spacecraft equipped with specific instruments for various scientific and technological missions. These include communications satellites like Starlink; space stations such as the ISS; scientific satellites like the Hubble; Earth observation satellites from companies like Planet Labs, Umbra, and HawkEye 360; GPS; miniature CubeSats for education and research; and military/defense satellites.

Loading next visibility...
Identifier
68587, 2026-072Q
Orbit
LEO
Country
Flag of USUS
Related business
Manufacturer
Kuiper Systems
Mission
Operational spacecraft
Bus & Motor
KUIPER, Unknown motor
Mass
~490 kg wet, ~490 kg dry
Launch date (UTC)
2026-04-04 (2 months ago)
Launch vehicle
ATLAS V 551
Launch site
Air Force Eastern Test Range (AFETR)
Object type
Payload
Rocket body
Debris
Shape & HBR
Unknown shape, 3.4 m
Radar Cross Section
Large (>1 m²)

Expand to show TLE details & history
Last TLE update: 1 day ago

TLE from 1 day ago
0 KUIPER-00269
1 68587U 26072Q   26149.53416647  .00036859  00000-0  95526-3 0  9990
2 68587  51.8739 266.9174 0005152 300.3353  59.7124 15.38661686  8516
Epoch: 2026-05-29T12:49Z
TLE epoch observation values (Epoch: 2026-05-29T12:49:11.983Z)
Latitude
-0.00003°
Longitude
-172.44572°
Altitude
449.056 km
Speed
7.645 km/s
True Right ascension
17h 47m 40s
True Declination
0° 00' 00"
Sunlit
Object was in full shadow at epoch
Visualization orbit readout
Latitude
Unknown
Longitude
Unknown
Altitude
Unknown
Speed
Unknown
Apparent Right ascension
Unknown
Apparent Declination
Unknown
Sunlit
N/A
Visualization observer readout
Local Sidereal Time
00:53:53
Azimuth
Unknown
Elevation
Unknown
Doppler factor
Unknown
Orbital elements
Apogee altitude
454.051 km
Perigee altitude
447.015 km
Semi-major axis
6,828.67 km
Eccentricity
0.00052
Inclination
51.8739°
RAAN
266.9174°
Arg. of periapsis
300.3353°
True anomaly
59.7634°
Mean anomaly
59.7124°
Eccentric anomaly
59.7379°
Mean motion
3.84626 °/min
Orbital period
93.6 mins
BSTAR
0.00095526
Loading maneuver chart data...
Computing Atmospheric mass density...
Loading historical data...
Loading historical data...
Loading historical data...
Loading historical data...
Loading historical data...
Loading historical data...
Loading historical data...

Documentation

Showing up to 5 results
|